Showing default

ASTROCAST-0105, 47517

Orbit data source: Space-Track

ASTROCAST-0105, 47517 is a payload satellite owned by Astrocast (CH) in SSO that was launched on Sun, 24 Jan 2021 UTC via an FALCON 9 launch vehicle from the Air Force Eastern Test Range (AFETR). Payload-class satellites include a variety of spacecraft equipped with specific instruments for various scientific and technological missions. These include communications satellites like Starlink; space stations such as the ISS; scientific satellites like the Hubble; Earth observation satellites from companies like Planet Labs, Umbra, and HawkEye 360; GPS; miniature CubeSats for education and research; and military/defense satellites.

Loading next visibility...
Identifier
47517, 2021-006DH
Orbit
SSO
Country
Flag of CHCH / SWTZ
Related business
Manufacturer
Astrocast
Mission
Operational Commercial Communications
Bus & Motor
CUBESAT 3U, Unknown motor
Mass
5 kg wet, 5 kg dry
Launch date (UTC)
2021-01-24 (5 years ago)
Launch vehicle
FALCON 9
Launch site
Air Force Eastern Test Range (AFETR)
Object type
Payload
Rocket body
Debris
Shape & HBR
Box, Unknown HBR
Radar Cross Section
0.035 m², Small (<0.1 m²)

Expand to show TLE details & history
Last TLE update: 23 hours ago

TLE from 23 hours ago
0 ASTROCAST-0105
1 47517U 21006DH  26145.15019021  .00343305  00000-0  14350-2 0  9993
2 47517  97.2062 208.5546 0007143 221.2583 138.8148 15.84735532297295
Epoch: 2026-05-25T03:36Z
TLE epoch observation values (Epoch: 2026-05-25T03:36:16.434Z)
Latitude
-0.00006°
Longitude
-88.25598°
Altitude
323.854 km
Speed
7.712 km/s
True Right ascension
13h 54m 13s
True Declination
0° 00' 00"
Sunlit
Object was in full shadow at epoch
Visualization orbit readout
Latitude
Unknown
Longitude
Unknown
Altitude
Unknown
Speed
Unknown
Apparent Right ascension
Unknown
Apparent Declination
Unknown
Sunlit
N/A
Visualization observer readout
Local Sidereal Time
12:08:32
Azimuth
Unknown
Elevation
Unknown
Doppler factor
Unknown
Orbital elements
Apogee altitude
318.721 km
Perigee altitude
309.161 km
Semi-major axis
6,692.078 km
Eccentricity
0.00071
Inclination
97.2062°
RAAN
208.5546°
Arg. of periapsis
221.2583°
True anomaly
138.86866°
Mean anomaly
138.8148°
Eccentric anomaly
138.84174°
Mean motion
3.96462 °/min
Orbital period
90.8 mins
BSTAR
0.001435
Loading maneuver chart data...
Computing Atmospheric mass density...

Documentation

Showing up to 5 results
|